CW1734 Weather Reports


Display with metric or nautical units.
time (UTC)temp
F
wind
direction
speed
MPH
gust
MPH
rain 1hr
in
rain 24hr
in
rain mn
in
humidity
%
barometer
mb
20260904200904 62 280 7.0 13.0 0.00 0.13 0.13 73 1018.5
20260904200404 62 274 7.0 14.0 0.00 0.13 0.13 73 1018.5
20260904195904 62 261 5.0 10.0 0.00 0.13 0.13 72 1018.5
20260904194904 62 254 4.0 9.0 0.00 0.13 0.13 71 1018.5
20260904193904 62 272 9.0 14.0 0.00 0.13 0.13 71 1018.3
20260904193403 63 259 7.0 16.0 0.00 0.13 0.13 70 1018.3
20260904192904 63 280 7.0 15.0 0.00 0.13 0.13 71 1017.8
20260904192404 63 258 3.0 10.0 0.00 0.13 0.13 71 1017.8
20260904191903 63 257 5.0 12.0 0.00 0.13 0.13 71 1017.8
20260904191404 63 243 4.0 12.0 0.00 0.13 0.13 71 1017.8
20260904190903 63 236 2.0 6.0 0.00 0.13 0.13 70 1017.8
20260904190404 63 262 3.0 9.0 0.00 0.13 0.13 70 1017.8
20260904185903 64 242 3.0 10.0 0.00 0.13 0.13 70 1017.8
20260904185404 64 250 4.0 8.0 0.00 0.13 0.13 69 1017.8
20260904184903 64 255 3.0 9.0 0.00 0.13 0.13 69 1017.8
20260904184404 64 242 3.0 9.0 0.00 0.13 0.13 69 1017.8
20260904183404 64 244 3.0 8.0 0.00 0.13 0.13 69 1017.8
20260904182903 64 283 7.0 13.0 0.00 0.13 0.13 69 1017.8
20260904182404 64 267 3.0 8.0 0.00 0.13 0.13 68 1017.5
20260904181904 64 279 5.0 9.0 0.00 0.13 0.13 68 1017.2
20260904181405 64 268 6.0 12.0 0.00 0.13 0.13 68 1017.2
20260904175903 64 278 7.0 12.0 0.00 0.13 0.13 69 1017.1
20260904175403 64 278 6.0 15.0 0.00 0.13 0.13 70 1016.9
20260904174904 65 284 6.0 10.0 0.00 0.13 0.13 70 1016.9
20260904174404 65 278 6.0 12.0 0.00 0.13 0.13 71 1016.9
20260904173904 65 275 7.0 12.0 0.00 0.13 0.13 70 1016.9
20260904173404 65 284 6.0 10.0 0.00 0.13 0.13 70 1016.8
20260904172904 65 284 5.0 10.0 0.00 0.13 0.13 70 1016.8
20260904172404 65 271 6.0 8.0 0.00 0.13 0.13 70 1016.8
20260904171904 65 234 4.0 9.0 0.00 0.13 0.13 69 1016.8
20260904171404 65 271 5.0 8.0 0.00 0.13 0.13 69 1016.9
20260904170904 65 264 3.0 10.0 0.00 0.13 0.13 70 1016.9
20260904170404 65 267 9.0 14.0 0.00 0.13 0.13 69 1016.9
20260904165904 65 275 5.0 14.0 0.00 0.13 0.13 70 1016.9
20260904165404 66 281 5.0 10.0 0.00 0.13 0.13 70 1016.8
20260904164903 65 278 7.0 13.0 0.00 0.13 0.13 69 1016.8
20260904163404 66 288 7.0 12.0 0.00 0.13 0.13 68 1016.9
20260904162903 66 288 7.0 15.0 0.00 0.13 0.13 68 1016.6
20260904162404 66 279 6.0 12.0 0.00 0.13 0.13 67 1016.6
20260904161904 66 293 8.0 14.0 0.00 0.13 0.13 68 1016.6
20260904161404 66 277 10.0 14.0 0.00 0.13 0.13 67 1016.6
20260904155904 66 285 7.0 14.0 0.00 0.13 0.13 68 1016.5
20260904155404 66 276 7.0 13.0 0.00 0.13 0.13 69 1016.5
20260904154404 66 281 7.0 13.0 0.00 0.13 0.13 70 1016.0
20260904153404 66 298 9.0 15.0 0.00 0.13 0.13 71 1016.0
20260904152903 66 279 9.0 13.0 0.00 0.13 0.13 71 1016.0
20260904152404 66 283 7.0 15.0 0.00 0.13 0.13 71 1016.0
20260904151904 66 292 8.0 14.0 0.00 0.13 0.13 72 1016.0
20260904151404 67 301 10.0 14.0 0.00 0.13 0.13 72 1016.0
20260904150904 67 294 9.0 15.0 0.00 0.13 0.13 72 1016.0
20260904150404 67 272 6.0 9.0 0.00 0.13 0.13 72 1016.0
20260904145904 67 316 9.0 14.0 0.00 0.13 0.13 71 1016.0
20260904144903 68 283 8.0 12.0 0.00 0.13 0.13 72 1016.0
20260904144404 68 271 7.0 15.0 0.00 0.13 0.13 72 1016.0
20260904143904 68 279 9.0 17.0 0.00 0.13 0.13 71 1016.1
20260904143404 68 276 11.0 17.0 0.00 0.13 0.13 71 1016.1
20260904142403 69 290 12.0 17.0 0.00 0.13 0.13 70 1015.9
20260904141903 69 291 10.0 15.0 0.00 0.13 0.13 70 1015.7
20260904141404 70 303 8.0 14.0 0.00 0.13 0.13 70 1015.7
20260904140404 70 275 10.0 15.0 0.00 0.13 0.13 67 1015.7
20260904135904 71 262 10.0 16.0 0.00 0.13 0.13 66 1015.4
20260904134904 71 272 6.0 14.0 0.00 0.13 0.13 63 1015.3
20260904134404 71 261 7.0 15.0 0.00 0.13 0.13 66 1015.3
20260904133903 71 277 6.0 12.0 0.00 0.13 0.13 67 1015.3
20260904133404 72 226 5.0 15.0 0.00 0.13 0.13 67 1015.3
20260904132903 72 253 9.0 15.0 0.00 0.13 0.13 69 1015.2
20260904132403 72 278 8.0 14.0 0.00 0.13 0.13 69 1015.2
20260904131904 71 258 5.0 13.0 0.00 0.13 0.13 70 1015.2
20260904131404 71 260 6.0 17.0 0.00 0.13 0.13 69 1015.3
20260904130903 71 267 6.0 17.0 0.00 0.13 0.13 72 1015.3
20260904130404 71 287 10.0 14.0 0.00 0.13 0.13 72 1015.3
20260904125904 71 259 6.0 15.0 0.00 0.13 0.13 72 1014.8
20260904125403 71 268 7.0 15.0 0.00 0.13 0.13 74 1014.8
20260904124404 71 290 8.0 15.0 0.00 0.13 0.13 75 1014.8
20260904123903 70 274 7.0 15.0 0.00 0.13 0.13 77 1014.8
20260904122904 70 291 10.0 17.0 0.00 0.13 0.13 75 1014.8
20260904122403 71 283 10.0 15.0 0.00 0.13 0.13 76 1014.8
20260904121904 72 278 9.0 15.0 0.00 0.13 0.13 76 1014.2
20260904120904 71 254 4.0 16.0 0.00 0.13 0.13 81 1014.2
20260904120404 71 283 6.0 12.0 0.00 0.13 0.13 81 1014.2
20260904115904 70 257 9.0 14.0 0.00 0.13 0.13 82 1014.2
20260904115403 69 289 9.0 15.0 0.00 0.13 0.13 82 1014.2
20260904114404 70 252 10.0 15.0 0.00 0.13 0.13 82 1014.2
20260904113903 70 249 4.0 9.0 0.00 0.13 0.13 85 1014.2
20260904112904 68 267 7.0 14.0 0.00 0.13 0.13 88 1014.2
20260904112403 67 288 6.0 9.0 0.00 0.13 0.13 90 1014.2
20260904111904 66 291 6.0 10.0 0.00 0.13 0.13 89 1014.2
20260904111404 66 284 7.0 9.0 0.00 0.13 0.13 89 1014.2
20260904110903 66 276 9.0 12.0 0.00 0.13 0.13 88 1014.2
20260904110404 67 285 7.0 13.0 0.00 0.13 0.13 88 1014.2
20260904105903 67 277 5.0 9.0 0.00 0.13 0.13 88 1014.2
20260904105404 67 278 5.0 7.0 0.00 0.13 0.13 88 1014.2
20260904104904 67 292 5.0 8.0 0.00 0.13 0.13 89 1014.3
20260904104404 67 239 4.0 8.0 0.00 0.13 0.13 90 1014.3
20260904103903 67 311 6.0 9.0 0.00 0.13 0.13 90 1014.2
20260904103404 67 315 4.0 7.0 0.00 0.13 0.13 90 1014.2
20260904102904 67 269 4.0 8.0 0.00 0.13 0.13 91 1014.2
20260904102404 67 243 3.0 6.0 0.00 0.13 0.13 92 1014.2
20260904101905 67 270 3.0 9.0 0.00 0.13 0.13 92 1014.2
20260904100904 67 248 6.0 10.0 0.00 0.13 0.13 92 1013.7
20260904100404 67 254 5.0 12.0 0.00 0.13 0.13 92 1013.7
20260904095904 67 253 5.0 8.0 0.00 0.13 0.13 92 1013.7
20260904095404 67 254 4.0 8.0 0.00 0.13 0.13 93 1013.7
20260904094903 66 240 3.0 9.0 0.00 0.13 0.13 93 1013.5
20260904094403 66 248 4.0 9.0 0.00 0.13 0.13 93 1013.4
20260904093904 66 229 5.0 9.0 0.00 0.13 0.13 93 1012.2
20260904092903 66 221 4.0 8.0 0.01 0.13 0.13 93 1012.2
20260904091403 66 257 5.0 8.0 0.06 0.13 0.13 93 1012.2
20260904090904 66 267 3.0 8.0 0.11 0.13 0.13 93 1012.2
20260904090404 66 261 3.0 7.0 0.11 0.13 0.13 93 1012.2
20260904085903 66 252 3.0 7.0 0.11 0.13 0.13 93 1012.2
20260904085404 65 277 3.0 7.0 0.11 0.13 0.13 94 1012.2
20260904084904 65 247 2.0 7.0 0.11 0.13 0.13 93 1012.2
20260904083404 64 278 7.0 15.0 0.11 0.13 0.13 93 1012.2
20260904082903 64 278 8.0 15.0 0.10 0.12 0.12 93 1012.2
20260904082403 65 278 7.0 14.0 0.09 0.11 0.11 93 1012.2
20260904081904 65 279 6.0 14.0 0.08 0.09 0.09 92 1012.2
20260904081404 66 277 13.0 23.0 0.05 0.06 0.06 92 1012.2
20260904080903 67 254 7.0 18.0 0.00 0.02 0.02 93 1012.2
20260904080404 67 237 10.0 20.0 0.00 0.02 0.02 93 1012.2
20260904075904 67 220 11.0 20.0 0.00 0.02 0.02 93 1012.2
20260904075403 67 226 9.0 20.0 0.00 0.02 0.02 93 1012.2
20260904074404 67 238 8.0 25.0 0.00 0.02 0.02 93 1012.2
20260904073904 67 229 9.0 21.0 0.00 0.02 0.02 93 1012.2
20260904073404 67 221 9.0 21.0 0.00 0.02 0.02 93 1012.2
20260904072904 67 227 7.0 13.0 0.00 0.02 0.02 93 1012.2
20260904072404 67 218 10.0 21.0 0.00 0.02 0.02 93 1012.2
20260904071904 67 215 10.0 20.0 0.00 0.02 0.02 93 1012.3
20260904071404 67 236 10.0 16.0 0.00 0.02 0.02 93 1012.3
20260904070904 67 221 10.0 20.0 0.00 0.02 0.02 93 1012.3
20260904070404 67 220 10.0 18.0 0.00 0.02 0.02 93 1012.3
20260904065903 67 232 10.0 22.0 0.00 0.02 0.02 93 1012.4
20260904065404 67 242 8.0 18.0 0.00 0.02 0.02 93 1012.4
20260904064904 67 230 8.0 24.0 0.00 0.02 0.02 93 1012.3
20260904064403 67 238 9.0 21.0 0.00 0.02 0.02 93 1012.3
20260904063904 66 223 7.0 20.0 0.00 0.02 0.02 93 1012.3
20260904063404 66 218 7.0 16.0 0.00 0.02 0.02 93 1012.3
20260904062904 66 230 8.0 25.0 0.00 0.02 0.02 93 1012.3
20260904062404 66 238 8.0 17.0 0.00 0.02 0.02 93 1012.3
20260904061903 66 222 8.0 17.0 0.00 0.02 0.02 93 1012.4
20260904061403 66 229 9.0 22.0 0.00 0.02 0.02 93 1012.6
20260904060903 66 227 8.0 21.0 0.00 0.02 0.02 93 1012.6
20260904060404 66 223 7.0 20.0 0.00 0.02 0.02 93 1012.6
20260904055904 66 221 8.0 20.0 0.00 0.02 0.02 93 1012.6
20260904055404 66 225 7.0 28.0 0.00 0.02 0.02 93 1012.6
20260904054904 66 235 6.0 15.0 0.00 0.02 0.02 93 1012.6
20260904054403 66 237 7.0 15.0 0.00 0.02 0.02 93 1012.6
20260904053903 66 207 9.0 17.0 0.00 0.02 0.02 93 1012.6
20260904053403 66 226 7.0 20.0 0.00 0.02 0.02 93 1012.6
20260904052404 66 226 6.0 15.0 0.00 0.02 0.02 93 1012.7
20260904051903 66 233 8.0 23.0 0.00 0.02 0.02 93 1012.7
20260904051404 66 220 10.0 20.0 0.00 0.02 0.02 93 1012.7
20260904050903 66 226 9.0 26.0 0.00 0.02 0.02 93 1012.7
20260904045903 66 226 9.0 20.0 0.00 0.02 0.02 93 1013.2
20260904045404 66 223 10.0 21.0 0.00 0.02 0.02 93 1013.2
20260904044903 66 215 7.0 17.0 0.00 0.02 0.02 93 1013.2
20260904044404 66 224 10.0 20.0 0.00 0.02 0.02 93 1013.2
20260904043905 66 220 9.0 25.0 0.00 0.02 0.02 93 1013.2
20260904043404 66 215 7.0 20.0 0.00 0.02 0.02 93 1013.2
20260904042903 66 238 9.0 22.0 0.00 0.02 0.02 93 1013.2
20260904042404 66 210 12.0 25.0 0.00 0.02 0.02 93 1013.2
20260904041904 66 237 9.0 18.0 0.00 0.02 0.02 93 1013.2
20260904040903 66 219 10.0 21.0 0.00 0.02 0.02 93 1013.2
20260904040404 66 222 9.0 16.0 0.00 0.02 0.02 93 1013.6
20260904035903 66 208 10.0 18.0 0.00 0.02 0.02 93 1013.6
20260904035404 66 215 12.0 21.0 0.00 0.02 0.02 93 1013.6
20260904034903 66 208 7.0 24.0 0.00 0.02 0.02 93 1013.6
20260904034404 66 212 10.0 20.0 0.00 0.02 0.02 93 1013.7
20260904033903 66 208 8.0 17.0 0.00 0.02 0.02 93 1013.7
20260904032903 66 222 12.0 21.0 0.01 0.02 0.02 93 1013.9
20260904032404 66 211 8.0 24.0 0.01 0.02 0.02 93 1013.9
20260904031904 66 220 11.0 20.0 0.01 0.02 0.02 93 1013.9
20260904031403 66 225 10.0 22.0 0.01 0.02 0.02 93 1014.0
20260904030904 66 220 7.0 14.0 0.01 0.02 0.02 93 1014.0
20260904025903 66 209 10.0 20.0 0.01 0.02 0.02 93 1014.0
20260904025403 66 235 7.0 17.0 0.01 0.02 0.02 93 1014.1
20260904024404 66 221 7.0 16.0 0.02 0.02 0.02 93 1014.2
20260904023903 66 222 9.0 20.0 0.02 0.02 0.02 93 1014.2
20260904023404 66 224 9.0 21.0 0.01 0.01 0.01 93 1014.2
20260904022903 66 221 8.0 18.0 0.01 0.01 0.01 93 1014.2
20260904021903 66 217 8.0 20.0 0.01 0.01 0.01 93 1014.4
20260904020905 66 241 7.0 17.0 0.01 0.01 0.01 93 1014.5
20260904020404 66 224 8.0 18.0 0.01 0.01 0.01 93 1014.5
20260904015904 66 221 6.0 18.0 0.01 0.01 0.01 93 1014.6
20260904015403 66 209 5.0 18.0 0.01 0.01 0.01 93 1014.9
20260904014904 66 211 4.0 12.0 0.00 0.00 0.00 93 1014.9
20260904014404 66 224 6.0 13.0 0.00 0.00 0.00 93 1014.9
20260904013903 66 219 8.0 20.0 0.00 0.00 0.00 93 1014.9
20260904012403 66 237 9.0 21.0 0.00 0.00 0.00 93 1014.6
20260904011904 66 217 7.0 20.0 0.00 0.00 0.00 93 1014.6
20260904011404 66 220 10.0 20.0 0.00 0.00 0.00 93 1014.6
20260904010903 66 216 10.0 20.0 0.00 0.00 0.00 93 1014.6
20260904005904 66 235 10.0 21.0 0.00 0.00 0.00 93 1014.6
20260904005404 66 217 10.0 22.0 0.00 0.00 0.00 93 1015.2
20260904004904 66 220 12.0 20.0 0.00 0.00 0.00 93 1015.2
20260904004404 66 232 9.0 14.0 0.00 0.00 0.00 93 1015.2
20260904003903 66 221 7.0 20.0 0.00 0.00 0.00 93 1015.2
20260904003403 66 210 9.0 16.0 0.00 0.00 0.00 93 1015.2
20260904002904 66 233 7.0 13.0 0.00 0.00 0.00 93 1015.2
20260904002403 66 221 7.0 17.0 0.00 0.00 0.00 93 1015.2
20260904001904 66 235 4.0 17.0 0.00 0.00 0.00 92 1015.2
20260904001404 66 233 6.0 12.0 0.00 0.00 0.00 92 1015.2
20260904000903 66 236 8.0 17.0 0.00 0.00 0.00 92 1015.2
20260904000405 66 220 7.0 17.0 0.00 0.00 0.00 92 1015.2
20260903235904 66 227 10.0 18.0 0.00 0.00 0.00 92 1015.2
20260903235403 66 226 11.0 23.0 0.00 0.00 0.00 92 1015.2
20260903234904 66 217 12.0 21.0 0.00 0.00 0.00 92 1015.2
20260903233904 66 226 13.0 20.0 0.00 0.00 0.00 92 1015.2
20260903233403 67 217 11.0 18.0 0.00 0.00 0.00 92 1015.2
20260903232903 67 217 12.0 18.0 0.00 0.00 0.00 92 1015.3
20260903231904 67 227 9.0 20.0 0.00 0.00 0.00 92 1015.5
20260903231404 67 222 9.0 16.0 0.00 0.00 0.00 92 1015.8
20260903230904 67 244 6.0 7.0 0.00 0.00 0.00 92 1015.8
20260903230403 67 173 7.0 12.0 0.00 0.00 0.00 92 1015.8
20260903225904 67 229 6.0 15.0 0.00 0.00 0.00 92 1015.8
20260903225403 67 210 7.0 16.0 0.00 0.00 0.00 92 1015.9
20260903224904 67 228 7.0 13.0 0.00 0.00 0.00 92 1015.8
20260903223903 67 213 7.0 23.0 0.00 0.00 0.00 92 1015.9
20260903223404 67 216 6.0 20.0 0.00 0.00 0.00 92 1016.0
20260903222904 67 225 6.0 14.0 0.00 0.00 0.00 92 1016.0
20260903222404 67 225 10.0 15.0 0.00 0.00 0.00 92 1016.0
20260903221904 67 226 5.0 14.0 0.00 0.00 0.00 92 1016.2
20260903221403 67 220 8.0 17.0 0.00 0.00 0.00 91 1016.2
20260903220903 67 209 9.0 17.0 0.00 0.00 0.00 91 1016.2
20260903220404 67 211 10.0 20.0 0.00 0.00 0.00 91 1016.2
20260903215903 67 221 6.0 21.0 0.00 0.00 0.00 91 1016.6
20260903215404 67 217 5.0 14.0 0.00 0.00 0.00 91 1016.6
20260903214904 67 213 3.0 10.0 0.00 0.00 0.00 91 1016.6
20260903214404 67 257 5.0 10.0 0.00 0.00 0.00 91 1016.9
20260903213903 67 233 3.0 10.0 0.00 0.00 0.00 91 1016.9
20260903213404 67 223 4.0 13.0 0.00 0.00 0.00 91 1016.9
20260903212403 67 245 5.0 13.0 0.00 0.00 0.00 91 1017.0
20260903211404 67 235 5.0 13.0 0.00 0.00 0.00 91 1017.2
20260903210903 67 242 5.0 12.0 0.00 0.00 0.00 91 1017.2
20260903210404 67 236 4.0 13.0 0.00 0.00 0.00 91 1017.2
20260903205903 67 219 6.0 15.0 0.00 0.00 0.00 91 1017.2
20260903204904 67 235 5.0 10.0 0.00 0.00 0.00 91 1017.2
20260903204404 67 241 4.0 10.0 0.00 0.00 0.00 91 1017.0
20260903203903 67 228 6.0 9.0 0.00 0.00 0.00 91 1017.0
20260903203404 67 240 6.0 12.0 0.00 0.00 0.00 91 1017.0
20260903202904 67 215 6.0 12.0 0.00 0.00 0.00 91 1017.0
20260903202403 67 230 10.0 20.0 0.00 0.00 0.00 91 1017.2
20260903201904 67 218 9.0 20.0 0.00 0.00 0.00 91 1017.2
20260903201404 67 221 7.0 18.0 0.00 0.00 0.00 91 1017.2